• In Czech Republic
  • List of Countries
  • For 7 days
  • Water Temperature
  • Satellite Maps
  • Weather Map
  • Weather Widgets
  • user-avatar
    Login

    Hourly Weather Kamloops

    Today, 21 October, Saturday

    Time Temperature Precipitation Wind Pressure Humidity
    00:00 +3°C° 0.1 mm 1 mps 699 mmHg 91%
    01:00 +2°C° 0.1 mm 2 mps 700 mmHg 91%
    02:00 +2°C° 0 mm 2 mps 700 mmHg 91%
    03:00 +2°C° 0 mm 2 mps 700 mmHg 91%
    04:00 +2°C° 0 mm 2 mps 700 mmHg 88%
    05:00 +1°C° 0 mm 2 mps 700 mmHg 88%
    06:00 +1°C° 0 mm 2 mps 700 mmHg 88%
    07:00 +1°C° 0 mm 2 mps 700 mmHg 88%
    08:00 +2°C° 0 mm 2 mps 700 mmHg 80%
    09:00 +3°C° 0 mm 3 mps 699 mmHg 71%
    10:00 +5°C° 0 mm 3 mps 699 mmHg 63%
    11:00 +6°C° 0.1 mm 4 mps 699 mmHg 63%
    12:00 +6°C° 0.1 mm 4 mps 698 mmHg 63%
    13:00 +7°C° 0.1 mm 4 mps 698 mmHg 63%
    14:00 +6°C° 0.3 mm 4 mps 697 mmHg 68%
    15:00 +6°C° 0.3 mm 4 mps 697 mmHg 72%
    16:00 +5°C° 0.3 mm 4 mps 696 mmHg 77%
    17:00 +5°C° 0.7 mm 4 mps 696 mmHg 81%
    18:00 +4°C° 0.7 mm 3 mps 695 mmHg 85%
    19:00 +4°C° 0.7 mm 3 mps 695 mmHg 88%
    20:00 +4°C° 0.4 mm 3 mps 694 mmHg 90%
    21:00 +3°C° 0.4 mm 3 mps 694 mmHg 91%
    22:00 +3°C° 0.4 mm 3 mps 693 mmHg 92%
    23:00 +4°C° 0.3 mm 3 mps 693 mmHg 93%

    Tomorrow, 22 October, Sunday

    Time Temperature Precipitation Wind Pressure Humidity
    00:00 +4°C° 0.3 mm 3 mps 693 mmHg 93%
    01:00 +4°C° 0.3 mm 3 mps 693 mmHg 94%
    02:00 +4°C° 0.1 mm 3 mps 693 mmHg 93%
    03:00 +4°C° 0.1 mm 4 mps 694 mmHg 92%
    04:00 +4°C° 0.1 mm 4 mps 695 mmHg 91%
    05:00 +4°C° 0 mm 4 mps 696 mmHg 90%
    06:00 +4°C° 0 mm 4 mps 697 mmHg 89%
    07:00 +3°C° 0 mm 4 mps 697 mmHg 88%
    08:00 +5°C° 0 mm 4 mps 698 mmHg 82%
    09:00 +6°C° 0 mm 4 mps 699 mmHg 76%
    10:00 +8°C° 0 mm 5 mps 700 mmHg 70%
    11:00 +8°C° 0 mm 5 mps 701 mmHg 67%
    12:00 +9°C° 0 mm 5 mps 702 mmHg 63%
    13:00 +9°C° 0 mm 6 mps 702 mmHg 59%
    14:00 +9°C° 0 mm 5 mps 703 mmHg 62%
    15:00 +8°C° 0 mm 5 mps 703 mmHg 64%
    16:00 +7°C° 0 mm 4 mps 704 mmHg 67%
    17:00 +6°C° 0 mm 4 mps 705 mmHg 73%
    18:00 +5°C° 0 mm 4 mps 706 mmHg 80%
    19:00 +4°C° 0 mm 3 mps 707 mmHg 86%
    20:00 +3°C° 0 mm 3 mps 709 mmHg 89%
    21:00 +4°C° 0 mm 2 mps 710 mmHg 91%
    22:00 +3°C° 0 mm 2 mps 711 mmHg 93%
    23:00 +3°C° 0 mm 2 mps 712 mmHg 94%

    Day after tomorrow, 23 October, Monday

    Time Temperature Precipitation Wind Pressure Humidity
    00:00 +3°C° 0 mm 2 mps 713 mmHg 95%
    01:00 +4°C° 0 mm 1 mps 714 mmHg 95%
    02:00 +4°C° 0 mm 1 mps 715 mmHg 96%
    03:00 +4°C° 0 mm 1 mps 715 mmHg 96%
    04:00 +4°C° 0 mm 1 mps 716 mmHg 96%
    05:00 +4°C° 0 mm 1 mps 716 mmHg 96%
    06:00 +4°C° 0 mm 1 mps 717 mmHg 96%
    07:00 +4°C° 0 mm 1 mps 717 mmHg 96%
    08:00 +5°C° 0 mm 1 mps 718 mmHg 89%
    09:00 +6°C° 0 mm 2 mps 718 mmHg 83%
    10:00 +8°C° 0 mm 2 mps 718 mmHg 77%
    11:00 +9°C° 0 mm 2 mps 718 mmHg 74%
    12:00 +10°C° 0 mm 2 mps 718 mmHg 70%
    13:00 +11°C° 0 mm 3 mps 718 mmHg 67%
    14:00 +10°C° 0 mm 2 mps 718 mmHg 71%
    15:00 +9°C° 0 mm 2 mps 718 mmHg 75%
    16:00 +9°C° 0 mm 2 mps 718 mmHg 79%
    17:00 +8°C° 0 mm 2 mps 719 mmHg 83%
    18:00 +7°C° 0 mm 2 mps 719 mmHg 86%
    19:00 +6°C° 0 mm 2 mps 719 mmHg 90%
    20:00 +6°C° 0 mm 2 mps 719 mmHg 91%
    21:00 +6°C° 0 mm 2 mps 720 mmHg 92%
    22:00 +6°C° 0 mm 2 mps 720 mmHg 92%
    23:00 +7°C° 0 mm 1 mps 720 mmHg 93%

    24 October, Tuesday

    Time Temperature Precipitation Wind Pressure Humidity
    00:00 +6°C° 0 mm 1 mps 720 mmHg 93%
    01:00 +6°C° 0 mm 1 mps 720 mmHg 94%
    02:00 +6°C° 0 mm 1 mps 719 mmHg 94%
    03:00 +6°C° 0 mm 1 mps 719 mmHg 94%
    04:00 +5°C° 0 mm 1 mps 719 mmHg 95%
    05:00 +6°C° 0 mm 1 mps 719 mmHg 95%
    06:00 +6°C° 0 mm 1 mps 718 mmHg 94%
    07:00 +6°C° 0 mm 1 mps 718 mmHg 94%
    08:00 +8°C° 0 mm 1 mps 717 mmHg 88%
    09:00 +10°C° 0 mm 1 mps 717 mmHg 82%
    10:00 +12°C° 0 mm 1 mps 717 mmHg 76%
    11:00 +13°C° 0 mm 2 mps 716 mmHg 73%
    12:00 +15°C° 0 mm 2 mps 715 mmHg 70%
    13:00 +16°C° 0 mm 2 mps 715 mmHg 66%
    14:00 +15°C° 0 mm 2 mps 714 mmHg 71%
    15:00 +14°C° 0 mm 1 mps 713 mmHg 75%
    16:00 +14°C° 0 mm 1 mps 713 mmHg 80%
    17:00 +12°C° 0 mm 1 mps 712 mmHg 85%
    18:00 +11°C° 0 mm 1 mps 712 mmHg 89%
    19:00 +8°C° 0 mm 2 mps 712 mmHg 94%
    20:00 +8°C° 0 mm 2 mps 711 mmHg 94%
    21:00 +8°C° 0 mm 2 mps 711 mmHg 95%
    22:00 +7°C° 0 mm 2 mps 710 mmHg 95%
    23:00 +7°C° 0 mm 2 mps 709 mmHg 93%

    25 October, Wednesday

    Time Temperature Precipitation Wind Pressure Humidity
    00:00 +7°C° 0 mm 2 mps 708 mmHg 92%
    01:00 +7°C° 0 mm 2 mps 708 mmHg 90%
    02:00 +7°C° 0.1 mm 2 mps 707 mmHg 89%
    03:00 +7°C° 0.1 mm 2 mps 706 mmHg 88%
    04:00 +7°C° 0.1 mm 2 mps 705 mmHg 87%
    05:00 +8°C° 0 mm 2 mps 705 mmHg 87%
    06:00 +8°C° 0 mm 2 mps 704 mmHg 88%
    07:00 +8°C° 0 mm 2 mps 703 mmHg 89%
    08:00 +9°C° 0 mm 2 mps 703 mmHg 86%
    09:00 +12°C° 0 mm 2 mps 703 mmHg 83%
    10:00 +14°C° 0 mm 2 mps 704 mmHg 79%
    11:00 +12°C° 0.2 mm 3 mps 704 mmHg 78%
    12:00 +12°C° 0.2 mm 3 mps 704 mmHg 77%
    13:00 +12°C° 0.2 mm 4 mps 705 mmHg 76%
    14:00 +11°C° 0 mm 3 mps 705 mmHg 74%
    15:00 +11°C° 0 mm 3 mps 706 mmHg 72%
    16:00 +10°C° 0 mm 2 mps 706 mmHg 71%
    17:00 +9°C° 0 mm 2 mps 707 mmHg 76%
    18:00 +7°C° 0 mm 2 mps 708 mmHg 80%
    19:00 +7°C° 0 mm 1 mps 708 mmHg 85%
    20:00 +6°C° 0 mm 1 mps 709 mmHg 87%
    21:00 +6°C° 0 mm 1 mps 709 mmHg 89%
    22:00 +5°C° 0 mm 1 mps 710 mmHg 91%
    23:00 +5°C° 0 mm 1 mps 710 mmHg 92%

    26 October, Thursday

    Time Temperature Precipitation Wind Pressure Humidity
    00:00 +5°C° 0 mm 1 mps 710 mmHg 93%
    01:00 +4°C° 0 mm 1 mps 711 mmHg 93%
    02:00 +4°C° 0 mm 1 mps 711 mmHg 94%
    03:00 +4°C° 0 mm 1 mps 711 mmHg 94%
    04:00 +4°C° 0 mm 1 mps 711 mmHg 94%
    05:00 +4°C° 0 mm 1 mps 711 mmHg 94%
    06:00 +4°C° 0 mm 1 mps 711 mmHg 93%
    07:00 +4°C° 0 mm 1 mps 711 mmHg 93%
    08:00 +5°C° 0 mm 0 mps 712 mmHg 84%
    09:00 +7°C° 0 mm 0 mps 712 mmHg 74%
    10:00 +10°C° 0 mm 0 mps 712 mmHg 65%
    11:00 +11°C° 0 mm 0 mps 712 mmHg 60%
    12:00 +12°C° 0 mm 0 mps 712 mmHg 56%
    13:00 +13°C° 0 mm 0 mps 712 mmHg 51%
    14:00 +12°C° 0 mm 0 mps 711 mmHg 55%
    15:00 +11°C° 0 mm 0 mps 711 mmHg 60%
    16:00 +11°C° 0 mm 1 mps 711 mmHg 64%
    17:00 +10°C° 0 mm 1 mps 712 mmHg 69%
    18:00 +8°C° 0 mm 1 mps 712 mmHg 75%
    19:00 +7°C° 0 mm 1 mps 712 mmHg 80%
    20:00 +6°C° 0 mm 1 mps 713 mmHg 82%
    21:00 +6°C° 0 mm 1 mps 713 mmHg 83%
    22:00 +5°C° 0 mm 1 mps 713 mmHg 85%
    23:00 +5°C° 0 mm 1 mps 713 mmHg 85%
    Show more